Location: Unspecified
(52.4064°N, 0.0000°E)
Time: 04:46:21
(UTC+00:00)

CSL-04 Rocket - Visible Passes

Search period start: 04 April 2026 00:00
Search period end: 14 April 2026 00:00
Orbit: 805 x 857 km, 98.7° (Epoch: 29 March)

Date Brightness Start Highest point End Pass type
(mag) Time Alt. Az. Time Alt. Az. Time Alt. Az.
4 Apr 4.4 19:59:57 10° S 20:05:20 56° W 20:10:49 10° NNW visible
5 Apr 3.9 19:42:16 10° S 19:47:45 75° WSW 19:53:20 10° NNW visible
5 Apr 6.3 21:26:11 10° WSW 21:29:02 14° W 21:31:54 10° NW visible
6 Apr 3.7 19:24:42 10° SSE 19:30:13 83° ENE 19:35:49 10° NNW visible
6 Apr 6.1 21:07:21 10° SW 21:11:14 19° W 21:15:09 10° NW visible
7 Apr 3.8 19:07:17 10° SSE 19:12:44 63° ENE 19:18:14 10° N visible
7 Apr 5.7 20:48:56 10° SSW 20:53:28 26° W 20:58:04 10° NW visible
8 Apr 5.3 20:30:47 10° SSW 20:35:46 34° W 20:40:49 10° NNW visible
9 Apr 4.8 20:12:49 10° S 20:18:07 46° W 20:23:28 10° NNW visible
10 Apr 4.3 19:55:03 10° S 20:00:30 61° WSW 20:06:02 10° NNW visible
10 Apr 6.5 21:40:26 10° W 21:41:58 11° W 21:43:31 10° WNW visible
11 Apr 3.9 19:37:23 10° SSE 19:42:56 81° WSW 19:48:32 10° NNW visible
11 Apr 6.3 21:20:56 10° WSW 21:24:08 15° W 21:27:21 10° NW visible
12 Apr 3.8 19:19:53 10° SSE 19:25:24 78° ENE 19:30:59 10° NNW visible
12 Apr 6.0 21:02:15 10° SW 21:06:20 21° W 21:10:28 10° NW visible
13 Apr 5.6 20:43:54 10° SSW 20:48:36 28° W 20:53:19 10° NW visible
